Weather Roundup
Issued by NWS Chicago, IL

Home | Current Version | Previous Version | Text Only | Print | Product List | Glossary On
Versions: 1 2 3 4 5 6 7 8 9 10 11 12 13 14 15 16 17 18 19 20 21 22 23 24 25 26 27 28 29 30 31 32 33 34 35 36 37 38 39 40 41 42 43 44 45 46 47 48 49 50
000
NZUS59 KLOT 272210
HRRLOT

CHICAGO AREA WEATHER ROUNDUP
NATIONAL WEATHER SERVICE CHICAGO/ROMEOVILLE IL
400 PM CST FRI FEB 27 2015

NOTE: "FAIR" INDICATES FEW OR NO CLOUDS BELOW 12,000 FEET WITH NO
SIGNIFICANT WEATHER AND/OR OBSTRUCTIONS TO VISIBILITY.

* THESE STATIONS ARE NOT UNDER NWS QUALITY CONTROL. THEY ALSO MAY NOT
  REPORT WEATHER SUCH AS PRECIPITATION OR FOG.

ILZ005-006-012>014-019>023-272300-
NORTHEAST ILLINOIS

CITY           SKY/WX    TMP DP  RH WIND       PRES   REMARKS
OHARE          SUNNY     13  -4  46 W10       30.58F WCI   0
MIDWAY         SUNNY     16  -3  43 W8        30.59F WCI   5
AURORA         SUNNY      9  -2  61 W6        30.60F WCI  -1
LANSING*       SUNNY     15  -3  46 W7        30.60S WCI   5
JOLIET*        SUNNY     12  -4  49 W5        30.63R WCI   4
WAUKEGAN       SUNNY     15  -4  42 W8        30.56F WCI   4
DUPAGE AIRPORT SUNNY     11  -4  51 W8        30.58F WCI  -1
WHEELING       SUNNY     14  -5  42 SW7       30.60S WCI   4
KANKAKEE*      SUNNY     12   1  60 SW8       30.64S WCI   0
MORRIS*        SUNNY     10   1  67 NW5       30.62R WCI   2
LEWIS AIRPORT* SUNNY     11  -3  53 W7        30.61R WCI   1
NORTHERLY IS     N/A     18  -2  41 W10         N/A  WCI   6
$$

WIZ051-052-058>065-066-070>072-272300-
SOUTHEAST WISCONSIN

CITY           SKY/WX    TMP DP  RH WIND       PRES   REMARKS
MILWAUKEE      SUNNY     15  -4  42 SW12      30.55S WCI   2
KENOSHA*       SUNNY     12  -3  51 W9        30.56F WCI   0
RACINE*        SUNNY     14  -5  42 W8        30.58S WCI   3
BURLINGTON     SUNNY     12  -6  44 W8        30.56F WCI   1
WAUKESHA       SUNNY     12  -6  44 SW10      30.54S WCI  -1
WEST BEND      SUNNY     18  -4  38 W10G16    30.51F WCI   6
$$

INZ001>003-010>013-019-020-272300-
NORTHWEST INDIANA

CITY           SKY/WX    TMP DP  RH WIND       PRES   REMARKS
GARY*          SUNNY     18  -8  32 W8        30.60F WCI   7
MICHIGAN CITY* NOT AVBL
RENSSELAER*    NOT AVBL
VALPARAISO     SUNNY     14  -2  49 S10       30.59R WCI   1
$$

LMZ740>746-272300-
SOUTHERN LAKE MICHIGAN

STATION/POSITION TIME  SKY/WX   TEMP WIND        PRES    VSBY
                                AIR  DIR/SP/G
                 (UTC)          (F)  (DEG/KT/KT) (MB)    (MI)
HARRISON CRIB    2200            16  260/  8/ 13   N/A
BURNHAM HARBOR   2200            18  270/  2/ 12   N/A
CALUMET HARBOR   2200            17  210/  6/ 13 1034.4F
BURNS HARBOR     NOT AVBL
MICHIGAN CITY    2200            17  250/  4/  5   N/A
$$

ABBREVIATIONS USED IN REMARKS
   TC - TEMPERATURE IN CELSIUS
  WCI - WIND CHILL INDEX
   HX - HEAT INDEX
  VSB - VISIBILITY
$$


USA.gov is the U.S. government's official web portal to all federal, state and local government web resources and services.